SCP
0 -0 0 0 -0 0 -0 -0 -0 -0 0 -0 -0 -0 -0 -0 -0 -0 -0 -0 -0 -0 -0 -0 -0 -0 -0 -0 -0 -0 -0 -0 -0 -0 -0 -0 -0 -0 -0 -0 -0 -0 -0
-0 0 0 0 -0 0 -0 -0 -0 -0 -0 -0 -0 -0 -0 -0 -0 -0 -0 -0 -0 -0 -0 -0 -0 -0 -0 -0 -0 -0 -0 -0 -0 -0 -0 -0 -0 -0 -0 -0 -0 -0 -0
0 0 -0 0 0 0 -0 -0 -0 0 -0 -0 -0 -0 -0 -0 -0 -0 -0 -0 -0 -0 -0 -0 -0 -0 -0 -0 -0 -0 -0 -0 -0 0 -0 0 0 -0 -0 -0 -0 -0 -0
0 0 0 0 0 -0 -0 -0 0 0 -0 -0 -0 -0 -0 -0 -0 -0 -0 -0 -0 -0 -0 -0 -0 -0 -0 -0 -0 -0 -0 -0 -0 -0 0 0 0 -0 -0 -0 -0 -0 -0
0 0 0 0 0 0 -0 -0 0 0 -0 -0 -0 -0 -0 -0 -0 -0 -0 -0 -0 -0 -0 -0 -0 -0 0 0 0 0 0 0 -0 -0 0 0 -0 -0 -0 -0 -0 -0 -0
0 0 0 0 0 0 -0 0 0 0 -0 -0 -0 -0 -0 -0 -0 -0 -0 -0 -0 -0 -0 -0 -0 -0 0 0 0 0 0 0 -0 0 -0 0 -0 -0 -0 -0 -0 -0 -0
0 0 0 0 0 0 -0 -0 -0 0 -0 -0 -0 0 -0 -0 -0 -0 -0 -0 -0 -0 -0 -0 -0 0 0 0 0 0 0 0 -0 -0 -0 -0 0 -0 -0 -0 -0 -0 -0
0 0 0 0 0 0 0 -0 0 -0 -0 -0 -0 0 -0 -0 -0 -0 -0 -0 -0 -0 -0 -0 -0 -0 0 0 0 0 0 -0 -0 -0 -0 -0 -0 -0 -0 -0 -0 -0 -0
0 0 0 0 0 0 0 -0 -0 -0 -0 -0 -0 0 -0 -0 -0 -0 -0 -0 -0 -0 -0 -0 -0 -0 0 0 0 0 -0 -0 -0 -0 -0 -0 0 -0 -0 -0 -0 -0 -0
0 0 0 0 0 0 0 -0 -0 -0 -0 -0 -0 -0 -0 -0 -0 -0 -0 -0 -0 -0 -0 -0 -0 -0 0 0 0 -0 -0 -0 -0 -0 -0 -0 0 -0 -0 -0 -0 -0 0
0 0 0 0 0 0 -0 -0 -0 -0 -0 -0 0 0 0 0 0 0 -0 -0 -0 -0 -0 -0 -0 -0 -0 -0 0 -0 -0 -0 -0 -0 -0 -0 -0 0 0 0 0 0 0
0 0 0 0 0 0 0 -0 0 -0 0 0 0 0 0 0 0 -0 -0 -0 -0 -0 -0 -0 0 0 -0 -0 -0 -0 -0 -0 -0 -0 -0 -0 -0 0 0 0 0 0 0
0 0 0 0 0 0 0 -0 0 0 0 0 0 0 0 0 0 0 0 0 0 0 0 0 0 0 0 -0 -0 -0 -0 -0 -0 0 -0 -0 -0 0 0 0 0 0 0
0 0 0 0 0 0 0 -0 0 0 0 0 0 0 0 0 0 0 0 0 0 0 0 0 0 0 0 0 0 0 0 0 0 0 0 0 0 0 0 0 0 0 0
0 0 0 0 0 0 0 -0 0 0 -0 0 0 0 0 0 0 0 0 0 0 0 0 0 0 0 0 0 0 0 0 0 0 0 0 0 0 0 0 0 0 0 0
0 0 0 0 0 0 0 0 -0 -0 -0 0 0 0 0 0 0 0 0 0 0 0 0 0 0 0 0 0 0 0 0 0 0 0 0 0 0 0 0 0 0 0 0
0 0 0 0 0 0 0 0 0 0 0 0 0 0 0 0 0 0 0 0 0 0 0 0 0 0 0 0 0 0 0 0 0 0 0 0 0 0 0 0 0 0 0
0 0 0 0 0 0 0 0 0 0 0 0 0 0 0 0 0 0 0 0 0 0 0 0 0 0 0 0 0 0 0 0 0 0 0 0 0 0 0 0 0 0 0
0 0 0 0 0 0 0 0 0 0 0 0 0 0 0 0 0 0 0 0 0 0 0 0 0 0 0 0 0 0 0 0 0 0 0 0 0 0 0 0 0 0 0
0 0 0 0 0 0 0 0 0 0 0 0 0 0 0 0 0 0 0 0 0 0 0 0 0 0 0 0 0 0 0 0 0 0 0 0 0 0 0 0 0 0 0
0 0 0 0 0 0 0 0 0 0 0 0 0 0 0 0 0 0 0 0 0 0 0 0 0 0 0 0 0 0 0 0 0 0 0 0 0 0 0 0 0 0 0
0 0 0 0 0 0 0 0 0 0 0 0 0 0 0 0 0 0 0 0 0 0 0 0 0 0 0 0 0 0 0 0 0 0 0 0 0 0 0 0 0 0 0
0 0 0 0 0 0 0 0 0 0 0 0 0 0 0 0 0 0 0 0 0 0 0 0 0 0 0 0 0 0 0 0 0 0 0 0 0 0 0 0 0 0 0
0 0 0 0 0 0 0 0 0 0 0 0 0 0 0 0 0 0 0 0 0 0 0 0 0 0 0 0 0 0 0 0 0 0 0 0 0 0 0 0 0 0 0
0 0 0 0 0 0 0 0 0 0 0 0 0 0 0 0 0 0 0 0 0 0 0 0 0 0 0 0 0 0 0 0 0 0 0 0 0 0 0 0 0 0 0
0 0 0 0 0 0 0 0 0 0 0 0 0 0 0 0 0 0 0 0 0 0 0 0 0 0 0 0 0 0 0 0 0 0 0 0 0 0 0 0 0 0 0
Wind_Speed_500mb
23 25 25 37 26 16 13 35 20 14 9 7 14 33 36 34 26 30 32 33 32 33 33 33 35 35 36 37 38 36 35 42 39 43 42 39 41 40 40 40 40 38 42
28 24 32 33 23 19 31 23 11 14 9 7 30 30 33 30 27 27 32 33 32 33 33 34 34 36 36 36 36 37 39 46 45 45 47 42 43 40 40 42 40 42 40
25 29 40 31 24 17 30 21 10 11 4 17 30 31 30 29 30 30 31 34 32 33 34 34 35 36 36 37 37 38 40 51 45 38 38 35 37 39 39 38 40 37 42
23 27 33 32 23 31 28 16 12 4 8 26 31 29 28 31 30 30 31 31 32 32 32 33 34 35 36 37 38 38 39 40 39 37 35 40 38 38 39 40 40 41 41
25 30 38 38 23 33 25 14 5 4 6 30 27 27 29 29 28 28 31 31 31 32 33 34 35 36 36 37 38 39 46 43 40 33 36 37 38 39 38 39 41 43 44
28 28 46 42 30 21 16 12 8 9 11 31 26 26 27 28 27 29 29 29 30 31 33 35 35 36 36 37 39 36 41 43 33 34 35 37 38 36 41 38 41 41 40
27 30 43 46 35 24 17 15 12 8 28 25 26 25 27 27 25 27 27 28 29 30 32 33 34 35 36 36 36 34 34 38 34 31 32 36 37 37 39 37 38 40 40
29 31 43 44 36 26 18 13 8 5 28 25 25 26 26 26 25 26 26 26 27 27 29 31 32 34 36 37 35 33 31 37 32 31 31 34 36 37 33 36 37 39 43
27 28 34 52 38 28 24 17 10 9 24 26 26 28 27 28 25 24 24 24 24 25 26 27 29 31 33 35 35 33 31 36 30 30 29 31 37 34 34 35 37 40 41
27 25 24 52 37 28 32 24 16 11 25 26 25 26 26 24 22 21 20 21 22 22 23 23 26 28 30 32 33 34 30 34 30 25 28 33 35 32 33 37 39 39 40
29 29 27 32 41 38 36 29 19 16 23 26 24 26 27 20 19 16 18 18 18 19 19 20 21 23 26 28 30 30 31 31 29 26 27 34 33 29 34 33 35 36 38
32 33 31 32 35 47 36 31 23 23 24 24 23 26 21 22 20 15 15 14 15 15 15 15 16 18 20 23 25 25 29 29 28 29 28 30 29 24 30 30 32 32 34
34 36 36 36 37 41 42 36 24 20 25 26 25 25 24 21 19 16 14 13 12 11 11 10 11 13 15 17 19 22 24 25 25 25 25 25 26 23 24 27 27 29 29
38 39 42 40 41 48 47 37 33 24 24 28 28 25 25 23 20 17 15 13 12 10 9 6 6 6 8 10 13 16 19 20 20 21 21 21 21 21 20 21 23 25 27
39 42 45 44 45 52 48 42 27 26 28 30 30 29 28 25 23 20 18 16 14 12 10 7 4 1 1 4 7 10 12 14 16 16 16 17 18 19 19 17 17 19 22
40 42 43 43 45 49 50 39 29 28 31 33 33 33 31 28 25 24 22 20 19 17 14 12 10 8 7 6 6 7 8 10 11 12 12 12 13 13 15 17 18 17 18
42 42 44 43 42 46 50 40 38 34 33 36 35 35 34 31 28 27 26 25 24 22 19 18 16 15 14 12 12 12 11 11 11 11 11 11 9 9 11 13 14 15 16
41 44 45 44 42 43 48 45 38 39 37 38 38 37 36 34 32 31 30 30 28 27 26 24 23 21 20 19 19 19 18 18 17 15 15 13 12 10 9 9 10 12 13
44 46 46 44 42 42 46 44 42 40 41 42 41 41 39 38 36 35 34 34 33 32 31 30 29 27 26 26 26 26 26 26 25 24 22 20 17 14 13 11 10 11 11
43 44 45 45 44 44 46 47 46 43 44 46 44 42 41 40 40 39 38 39 37 37 36 35 34 32 31 31 30 32 33 33 33 32 30 27 24 20 18 16 15 14 13
48 49 50 50 48 49 52 52 50 46 46 49 48 46 44 42 42 42 42 42 40 40 38 38 37 38 36 35 35 35 33 32 34 32 30 30 30 27 23 22 21 21 20
54 53 51 52 52 54 53 48 48 45 46 47 48 49 46 45 44 44 44 44 44 42 42 43 41 40 39 39 29 27 17 22 30 19 20 29 31 32 29 27 27 27 27
62 60 57 57 56 58 56 51 49 48 51 50 52 50 48 47 46 45 45 46 46 45 46 46 45 44 43 40 37 27 11 11 21 30 28 29 29 30 32 33 32 32 33
62 61 62 62 62 61 57 54 54 52 50 46 47 45 45 45 46 46 46 48 49 49 49 49 48 47 46 45 46 40 41 42 21 17 24 31 34 37 35 34 38 37 37
60 65 64 65 67 66 62 60 59 55 50 50 48 47 46 45 46 48 47 48 51 52 51 51 53 52 51 50 48 48 42 43 45 45 36 28 39 36 39 36 38 41 41
57 64 66 68 70 70 67 65 62 59 58 57 53 49 49 47 47 47 47 49 51 52 53 53 53 56 54 55 53 54 53 44 38 40 44 48 47 47 48 41 40 40 41
Wind_Direction_500mb
144 158 153 149 153 146 148 137 126 95 47 103 86 96 94 95 95 89 86 84 82 78 77 75 74 72 69 67 68 64 77 88 80 78 69 57 59 57 49 64 59 45 44
147 148 155 149 142 119 129 127 140 90 38 152 95 103 95 95 91 88 92 87 83 80 76 74 73 72 71 68 67 68 82 90 82 67 63 56 55 52 50 50 50 49 42
143 151 162 153 143 125 143 140 138 90 33 115 106 99 104 101 97 91 89 90 86 83 79 76 74 73 71 71 69 74 91 84 75 61 65 54 53 48 50 48 48 45 41
143 151 165 162 131 137 138 148 105 59 91 119 107 106 109 105 100 97 94 93 90 86 81 77 74 72 71 70 70 82 85 73 69 69 65 62 53 51 45 44 44 44 41
137 147 168 161 135 145 134 143 124 284 128 116 115 110 107 105 104 99 97 94 89 84 78 73 71 70 70 71 73 84 79 67 63 60 62 66 55 46 47 42 43 43 41
137 153 163 160 145 143 150 179 231 274 161 123 121 117 116 108 102 102 98 92 85 79 75 72 70 69 70 70 71 76 76 79 64 59 58 56 57 47 47 45 43 43 40
137 157 165 166 164 144 161 198 244 245 134 124 119 117 112 109 108 102 97 90 85 81 78 75 71 69 70 71 72 73 75 80 67 61 54 53 50 47 48 45 46 44 43
148 151 178 167 171 171 182 201 225 202 135 131 126 122 122 116 112 106 101 94 88 84 80 76 72 70 69 69 71 72 64 75 65 60 56 48 48 46 45 48 45 43 42
160 157 182 179 169 178 201 193 217 199 145 139 138 139 134 126 120 114 107 100 94 89 84 80 76 72 69 69 69 70 66 68 62 64 56 57 55 48 46 46 45 45 42
166 168 169 196 171 183 204 201 211 247 175 161 155 144 130 118 115 111 113 108 103 97 91 85 79 75 71 68 66 64 61 62 67 59 58 64 61 51 46 48 42 42 41
170 169 167 168 174 181 199 195 199 240 210 176 159 145 130 127 128 136 124 119 110 103 96 88 82 76 73 69 65 62 60 59 62 58 62 72 63 53 46 45 42 39 39
179 176 171 171 180 184 194 190 198 227 192 174 158 156 149 155 157 142 132 124 117 112 105 97 88 80 72 69 65 61 58 56 55 55 50 63 62 54 48 47 44 41 38
183 184 179 175 180 183 186 185 190 214 201 181 174 172 170 164 165 165 163 157 148 140 126 114 98 82 71 66 63 59 56 54 53 53 51 46 62 57 49 49 43 40 37
186 190 189 184 186 187 192 194 209 219 196 190 187 186 181 182 184 184 187 181 175 166 157 145 117 90 72 61 55 53 51 48 48 48 49 45 42 53 58 54 45 40 36
191 193 197 198 195 194 198 202 209 215 205 198 197 196 193 194 197 198 201 203 203 200 201 202 207 214 33 30 35 38 40 37 36 36 38 38 37 38 45 55 53 47 38
197 199 199 202 203 204 205 209 205 216 207 205 204 202 203 205 209 211 213 217 219 223 227 234 245 262 279 300 323 344 2 9 13 15 18 23 28 30 33 35 34 38 44
201 203 203 204 207 209 209 207 211 218 210 210 210 209 211 214 217 220 221 224 229 233 238 245 251 261 272 281 292 302 311 321 330 338 343 347 356 4 17 23 23 22 26
204 207 208 206 206 208 206 207 209 218 215 213 216 217 217 220 223 226 229 232 236 240 244 249 255 262 270 277 284 289 293 297 301 306 310 313 317 323 336 353 359 3 7
203 206 209 210 209 208 207 207 211 219 218 219 223 223 225 228 229 231 235 238 241 244 248 253 257 261 269 274 280 284 287 290 291 291 291 291 293 297 300 308 320 327 337
205 208 212 212 211 212 211 211 215 219 221 223 226 228 231 233 234 235 239 243 245 247 251 255 258 262 266 273 279 284 289 289 288 285 282 278 279 282 284 286 292 297 306
208 210 212 214 214 214 215 214 217 220 224 226 230 233 237 238 238 239 242 245 248 250 254 256 256 261 268 271 279 290 293 292 288 283 277 272 271 273 276 279 280 284 288
216 215 217 218 218 220 223 222 222 225 230 233 236 237 239 240 241 242 244 248 252 252 254 256 257 260 264 267 269 283 306 287 293 279 283 280 270 270 272 276 277 277 280
217 220 222 223 222 224 224 224 224 226 230 232 236 238 239 241 243 245 247 249 252 253 256 257 259 259 262 266 265 250 272 259 283 289 291 286 276 271 274 276 276 276 277
224 225 224 224 226 229 228 229 232 234 238 241 245 247 247 245 246 248 248 249 253 256 255 259 260 260 259 256 268 261 253 257 275 288 292 289 281 281 278 276 277 276 276
226 227 229 227 229 232 231 233 234 237 240 245 244 245 245 246 246 248 250 251 253 256 258 257 259 259 260 260 256 266 265 261 261 260 274 283 285 282 277 281 280 275 274
225 227 229 229 232 232 234 235 236 238 240 242 247 247 249 251 251 252 255 255 256 257 259 260 259 260 260 260 259 258 261 261 266 265 266 276 281 279 284 282 281 278 274
Wind_Speed_850mb
23 25 25 37 26 16 13 35 20 14 9 7 14 33 36 34 26 30 32 33 32 33 33 33 35 35 36 37 38 36 35 42 39 43 42 39 41 40 40 40 40 38 42
28 24 32 33 23 19 31 23 11 14 9 7 30 30 33 30 27 27 32 33 32 33 33 34 34 36 36 36 36 37 39 46 45 45 47 42 43 40 40 42 40 42 40
25 29 40 31 24 17 30 21 10 11 4 17 30 31 30 29 30 30 31 34 32 33 34 34 35 36 36 37 37 38 40 51 45 38 38 35 37 39 39 38 40 37 42
23 27 33 32 23 31 28 16 12 4 8 26 31 29 28 31 30 30 31 31 32 32 32 33 34 35 36 37 38 38 39 40 39 37 35 40 38 38 39 40 40 41 41
25 30 38 38 23 33 25 14 5 4 6 30 27 27 29 29 28 28 31 31 31 32 33 34 35 36 36 37 38 39 46 43 40 33 36 37 38 39 38 39 41 43 44
28 28 46 42 30 21 16 12 8 9 11 31 26 26 27 28 27 29 29 29 30 31 33 35 35 36 36 37 39 36 41 43 33 34 35 37 38 36 41 38 41 41 40
27 30 43 46 35 24 17 15 12 8 28 25 26 25 27 27 25 27 27 28 29 30 32 33 34 35 36 36 36 34 34 38 34 31 32 36 37 37 39 37 38 40 40
29 31 43 44 36 26 18 13 8 5 28 25 25 26 26 26 25 26 26 26 27 27 29 31 32 34 36 37 35 33 31 37 32 31 31 34 36 37 33 36 37 39 43
27 28 34 52 38 28 24 17 10 9 24 26 26 28 27 28 25 24 24 24 24 25 26 27 29 31 33 35 35 33 31 36 30 30 29 31 37 34 34 35 37 40 41
27 25 24 52 37 28 32 24 16 11 25 26 25 26 26 24 22 21 20 21 22 22 23 23 26 28 30 32 33 34 30 34 30 25 28 33 35 32 33 37 39 39 40
29 29 27 32 41 38 36 29 19 16 23 26 24 26 27 20 19 16 18 18 18 19 19 20 21 23 26 28 30 30 31 31 29 26 27 34 33 29 34 33 35 36 38
32 33 31 32 35 47 36 31 23 23 24 24 23 26 21 22 20 15 15 14 15 15 15 15 16 18 20 23 25 25 29 29 28 29 28 30 29 24 30 30 32 32 34
34 36 36 36 37 41 42 36 24 20 25 26 25 25 24 21 19 16 14 13 12 11 11 10 11 13 15 17 19 22 24 25 25 25 25 25 26 23 24 27 27 29 29
38 39 42 40 41 48 47 37 33 24 24 28 28 25 25 23 20 17 15 13 12 10 9 6 6 6 8 10 13 16 19 20 20 21 21 21 21 21 20 21 23 25 27
39 42 45 44 45 52 48 42 27 26 28 30 30 29 28 25 23 20 18 16 14 12 10 7 4 1 1 4 7 10 12 14 16 16 16 17 18 19 19 17 17 19 22
40 42 43 43 45 49 50 39 29 28 31 33 33 33 31 28 25 24 22 20 19 17 14 12 10 8 7 6 6 7 8 10 11 12 12 12 13 13 15 17 18 17 18
42 42 44 43 42 46 50 40 38 34 33 36 35 35 34 31 28 27 26 25 24 22 19 18 16 15 14 12 12 12 11 11 11 11 11 11 9 9 11 13 14 15 16
41 44 45 44 42 43 48 45 38 39 37 38 38 37 36 34 32 31 30 30 28 27 26 24 23 21 20 19 19 19 18 18 17 15 15 13 12 10 9 9 10 12 13
44 46 46 44 42 42 46 44 42 40 41 42 41 41 39 38 36 35 34 34 33 32 31 30 29 27 26 26 26 26 26 26 25 24 22 20 17 14 13 11 10 11 11
43 44 45 45 44 44 46 47 46 43 44 46 44 42 41 40 40 39 38 39 37 37 36 35 34 32 31 31 30 32 33 33 33 32 30 27 24 20 18 16 15 14 13
48 49 50 50 48 49 52 52 50 46 46 49 48 46 44 42 42 42 42 42 40 40 38 38 37 38 36 35 35 35 33 32 34 32 30 30 30 27 23 22 21 21 20
54 53 51 52 52 54 53 48 48 45 46 47 48 49 46 45 44 44 44 44 44 42 42 43 41 40 39 39 29 27 17 22 30 19 20 29 31 32 29 27 27 27 27
62 60 57 57 56 58 56 51 49 48 51 50 52 50 48 47 46 45 45 46 46 45 46 46 45 44 43 40 37 27 11 11 21 30 28 29 29 30 32 33 32 32 33
62 61 62 62 62 61 57 54 54 52 50 46 47 45 45 45 46 46 46 48 49 49 49 49 48 47 46 45 46 40 41 42 21 17 24 31 34 37 35 34 38 37 37
60 65 64 65 67 66 62 60 59 55 50 50 48 47 46 45 46 48 47 48 51 52 51 51 53 52 51 50 48 48 42 43 45 45 36 28 39 36 39 36 38 41 41
57 64 66 68 70 70 67 65 62 59 58 57 53 49 49 47 47 47 47 49 51 52 53 53 53 56 54 55 53 54 53 44 38 40 44 48 47 47 48 41 40 40 41
Wind_Direction_850mb
144 158 153 149 153 146 148 137 126 95 47 103 86 96 94 95 95 89 86 84 82 78 77 75 74 72 69 67 68 64 77 88 80 78 69 57 59 57 49 64 59 45 44
147 148 155 149 142 119 129 127 140 90 38 152 95 103 95 95 91 88 92 87 83 80 76 74 73 72 71 68 67 68 82 90 82 67 63 56 55 52 50 50 50 49 42
143 151 162 153 143 125 143 140 138 90 33 115 106 99 104 101 97 91 89 90 86 83 79 76 74 73 71 71 69 74 91 84 75 61 65 54 53 48 50 48 48 45 41
143 151 165 162 131 137 138 148 105 59 91 119 107 106 109 105 100 97 94 93 90 86 81 77 74 72 71 70 70 82 85 73 69 69 65 62 53 51 45 44 44 44 41
137 147 168 161 135 145 134 143 124 284 128 116 115 110 107 105 104 99 97 94 89 84 78 73 71 70 70 71 73 84 79 67 63 60 62 66 55 46 47 42 43 43 41
137 153 163 160 145 143 150 179 231 274 161 123 121 117 116 108 102 102 98 92 85 79 75 72 70 69 70 70 71 76 76 79 64 59 58 56 57 47 47 45 43 43 40
137 157 165 166 164 144 161 198 244 245 134 124 119 117 112 109 108 102 97 90 85 81 78 75 71 69 70 71 72 73 75 80 67 61 54 53 50 47 48 45 46 44 43
148 151 178 167 171 171 182 201 225 202 135 131 126 122 122 116 112 106 101 94 88 84 80 76 72 70 69 69 71 72 64 75 65 60 56 48 48 46 45 48 45 43 42
160 157 182 179 169 178 201 193 217 199 145 139 138 139 134 126 120 114 107 100 94 89 84 80 76 72 69 69 69 70 66 68 62 64 56 57 55 48 46 46 45 45 42
166 168 169 196 171 183 204 201 211 247 175 161 155 144 130 118 115 111 113 108 103 97 91 85 79 75 71 68 66 64 61 62 67 59 58 64 61 51 46 48 42 42 41
170 169 167 168 174 181 199 195 199 240 210 176 159 145 130 127 128 136 124 119 110 103 96 88 82 76 73 69 65 62 60 59 62 58 62 72 63 53 46 45 42 39 39
179 176 171 171 180 184 194 190 198 227 192 174 158 156 149 155 157 142 132 124 117 112 105 97 88 80 72 69 65 61 58 56 55 55 50 63 62 54 48 47 44 41 38
183 184 179 175 180 183 186 185 190 214 201 181 174 172 170 164 165 165 163 157 148 140 126 114 98 82 71 66 63 59 56 54 53 53 51 46 62 57 49 49 43 40 37
186 190 189 184 186 187 192 194 209 219 196 190 187 186 181 182 184 184 187 181 175 166 157 145 117 90 72 61 55 53 51 48 48 48 49 45 42 53 58 54 45 40 36
191 193 197 198 195 194 198 202 209 215 205 198 197 196 193 194 197 198 201 203 203 200 201 202 207 214 33 30 35 38 40 37 36 36 38 38 37 38 45 55 53 47 38
197 199 199 202 203 204 205 209 205 216 207 205 204 202 203 205 209 211 213 217 219 223 227 234 245 262 279 300 323 344 2 9 13 15 18 23 28 30 33 35 34 38 44
201 203 203 204 207 209 209 207 211 218 210 210 210 209 211 214 217 220 221 224 229 233 238 245 251 261 272 281 292 302 311 321 330 338 343 347 356 4 17 23 23 22 26
204 207 208 206 206 208 206 207 209 218 215 213 216 217 217 220 223 226 229 232 236 240 244 249 255 262 270 277 284 289 293 297 301 306 310 313 317 323 336 353 359 3 7
203 206 209 210 209 208 207 207 211 219 218 219 223 223 225 228 229 231 235 238 241 244 248 253 257 261 269 274 280 284 287 290 291 291 291 291 293 297 300 308 320 327 337
205 208 212 212 211 212 211 211 215 219 221 223 226 228 231 233 234 235 239 243 245 247 251 255 258 262 266 273 279 284 289 289 288 285 282 278 279 282 284 286 292 297 306
208 210 212 214 214 214 215 214 217 220 224 226 230 233 237 238 238 239 242 245 248 250 254 256 256 261 268 271 279 290 293 292 288 283 277 272 271 273 276 279 280 284 288
216 215 217 218 218 220 223 222 222 225 230 233 236 237 239 240 241 242 244 248 252 252 254 256 257 260 264 267 269 283 306 287 293 279 283 280 270 270 272 276 277 277 280
217 220 222 223 222 224 224 224 224 226 230 232 236 238 239 241 243 245 247 249 252 253 256 257 259 259 262 266 265 250 272 259 283 289 291 286 276 271 274 276 276 276 277
224 225 224 224 226 229 228 229 232 234 238 241 245 247 247 245 246 248 248 249 253 256 255 259 260 260 259 256 268 261 253 257 275 288 292 289 281 281 278 276 277 276 276
226 227 229 227 229 232 231 233 234 237 240 245 244 245 245 246 246 248 250 251 253 256 258 257 259 259 260 260 256 266 265 261 261 260 274 283 285 282 277 281 280 275 274
225 227 229 229 232 232 234 235 236 238 240 242 247 247 249 251 251 252 255 255 256 257 259 260 259 260 260 260 259 258 261 261 266 265 266 276 281 279 284 282 281 278 274